Regional Weather Roundup
Issued by NWS

Home | Current Version | Previous Version | Graphics & Text | Print | Product List | Glossary On
Versions: 1 2 3 4 5 6 7 8 9 10 11 12 13 14 15 16 17 18 19 20 21 22 23 24 25 26 27 28 29 30 31 32 33 34 35 36 37 38 39 40 41 42 43 44 45 46 47 48 49 50
000
ASUS45 KCYS 290210
RWRWY

WYOMING REGIONAL WEATHER ROUNDUP
NATIONAL WEATHER SERVICE CHEYENNE WY
800 PM MDT TUE JUL 28 2015

NOTE:  "FAIR" INDICATES FEW OR NO CLOUDS BELOW 12,000 FEET
WITH NO SIGNIFICANT WEATHER AND/OR OBSTRUCTIONS TO VISIBILITY.

WYZ001-290300-
YELLOWSTONE NATIONAL PARK

CITY           SKY/WX    TMP DP  RH WIND       PRES   REMARKS
LK YELLOWSTONE   N/A     51  29  42 VRB7      30.44R
W YELLOWSTONE  NOT AVBL

$$
WYZ002>013-054>058-071-098>099-290300-
NORTHERN WYOMING

CITY           SKY/WX    TMP DP  RH WIND       PRES   REMARKS
JACKSON        FAIR      61  30  31 NW6       30.36R
CODY           FAIR      64  28  25 W9G18     30.26R
GREYBULL       FAIR      74  30  19 N13       30.17R
WORLAND        FAIR      70  34  26 NE6       30.19R
SHERIDAN       FAIR      68  35  29 NW15G24   30.17R
BUFFALO        FAIR      65  34  31 NW13      30.24R
GILLETTE       FAIR      67  35  30 NW10      30.19R
HULETT         FAIR      66  34  30 NW8       30.18R
NEWCASTLE      FAIR      68  32  26 NW14G21   30.18R

$$
WYZ014>020-022>026-101>103-290300-
CENTRAL WYOMING

CITY           SKY/WX    TMP DP  RH WIND       PRES   REMARKS
BIG PINEY      FAIR      64  23  21 N10       30.35R
PINEDALE       FAIR      61  27  27 NW10      30.36R
DUBOIS         FAIR      55  27  33 N14       30.35R
LANDER         FAIR      70  29  21 N13       30.21R
RIVERTON       FAIR      70  23  17 NE8       30.23R
CASPER         FAIR      68  23  18 N9        30.21R
DOUGLAS        FAIR      71  22  15 N14       30.20R

$$
WYZ021-027>030-104>119-290300-
SOUTHERN WYOMING

CITY           SKY/WX    TMP DP  RH WIND       PRES   REMARKS
EVANSTON       FAIR      66  15  14 N8        30.34R
KEMMERER       FAIR      61  21  21 NW13      30.36S
FORT BRIDGER   CLEAR     68  18  14 NW13      30.36R
ROCK SPRINGS   FAIR      66  15  14 NW9       30.31R
DIXON          FAIR      73  24  16 N3        30.30R
RAWLINS        FAIR      68   9  10 W10       30.31R
SARATOGA       FAIR      64  27  24 W5        30.33R
LARAMIE        FAIR      66  23  19 NW12      30.31R
CHEYENNE       CLOUDY    71  30  21 E5        30.25R
TORRINGTON     FAIR      76  31  19 N7        30.14R
PINE BLUFFS    MOCLDY    70  27  19 NE7       30.22R

$$


USA.gov is the U.S. government's official web portal to all federal, state and local government web resources and services.